Weather History for Flint, MI

Change the Weather History Date:

Saturday, September 10, 2011

  Actual Average Record
Temperature  
Mean Temperature 71 °F 63 °F  
Max Temperature 81 °F 75 °F 96 °F (2013)
Min Temperature 60 °F 52 °F 36 °F (1969)
Degree Days  
Heating Degree Days 0 4  
Month to date heating degree days 19 27  
Since 1 July heating degree days 25 71  
Cooling Degree Days 6 2  
Month to date cooling degree days 61 25  
Year to date cooling degree days 803 502  
Growing Degree Days 20 (Base 50)    
Moisture  
Dew Point 61 °F    
Average Humidity 73    
Maximum Humidity 100    
Minimum Humidity 45    
Precipitation  
Precipitation 0.02 in 0.13 in 6.04 in (1950)
Month to date precipitation 0.30 1.21  
Year to date precipitation 31.75 21.77  
Snow  
Snow 0.00 in 0.00 in 0.00 in ()
Month to date snowfall 0.0 0.0  
Since 1 July snowfall 0.0 0.0  
Since 1 September snowfall 0.0 0.0  
Snow Depth 0.00 in    
Sea Level Pressure  
Sea Level Pressure 30.01 in    
Wind  
Wind Speed 3 mph (SE)    
Max Wind Speed 12 mph    
Max Gust Speed 13 mph    
Visibility 8 miles    
Events Rain    
T = Trace of Precipitation, MM = Missing Value Source: NWS Daily Summary

Daily Weather History Graph

Daily Weather History Graph

Search for Another Location

Airport:

Trip Planner

Search our weather history database for the weather conditions in past years. The results will help you decide how hot, cold, wet, or windy it might be!

Date:

Astronomy

Sep. 10, 2011 Rise Set
Actual Time 7:08 AM EDT 7:54 PM EDT
Civil Twilight 6:40 AM EDT 8:22 PM EDT
Nautical Twilight 6:06 AM EDT 8:56 PM EDT
Astronomical Twilight 5:30 AM EDT 9:32 PM EDT
Moon 6:49 PM EDT (9/10) 5:26 AM EDT (9/10)
Length of Visible Light 13h 42m
Length of Day
12h 45m
Waxing Gibbous, 97% of the Moon is Illuminated
Sep 10
Waxing Gibbous
Sep 12
Full
Sep 20
Last Quarter
Sep 27
New
Oct 3
First Quarter

Hourly Weather History & Observations

Time (EDT) Temp. Heat Index Dew Point Humidity Pressure Visibility Wind Dir Wind Speed Gust Speed Precip Events Conditions
12:53 AM 66.9 °F - 62.1 °F 84% 29.97 in 10.0 mi ENE 4.6 mph - 0.00 in   Mostly Cloudy
1:53 AM 66.0 °F - 62.1 °F 87% 29.98 in 8.0 mi SE 5.8 mph - 0.00 in Rain Light Rain
2:53 AM 64.0 °F - 61.0 °F 90% 29.96 in 10.0 mi Calm Calm - 0.02 in   Mostly Cloudy
3:53 AM 64.4 °F - 60.8 °F 88% 29.99 in 10.0 mi SE 4.6 mph - N/A   Mostly Cloudy
4:32 AM 64.4 °F - 60.8 °F 88% 29.98 in 10.0 mi WNW 3.5 mph - N/A   Scattered Clouds
4:53 AM 63.0 °F - 62.1 °F 97% 29.96 in 10.0 mi Calm Calm - N/A   Partly Cloudy
5:17 AM 64.4 °F - 62.6 °F 94% 29.98 in 10.0 mi NNE 5.8 mph - N/A   Mostly Cloudy
5:53 AM 64.0 °F - 61.0 °F 90% 29.99 in 10.0 mi NE 4.6 mph - N/A   Overcast
6:37 AM 62.6 °F - 60.8 °F 94% 30.01 in 10.0 mi Calm Calm - N/A   Partly Cloudy
6:53 AM 62.1 °F - 60.1 °F 93% 30.01 in 10.0 mi South 3.5 mph - N/A   Clear
7:30 AM 62.6 °F - 60.8 °F 94% 30.02 in 0.8 mi SSW 4.6 mph - N/A   Mostly Cloudy
7:53 AM 64.0 °F - 62.1 °F 93% 30.02 in 0.8 mi South 3.5 mph - N/A   Mostly Cloudy
8:00 AM 64.4 °F - 62.6 °F 94% 30.03 in 4.0 mi South 4.6 mph - N/A   Overcast
8:30 AM 64.4 °F - 62.6 °F 94% 30.02 in 2.0 mi Calm Calm - N/A   Overcast
8:53 AM 64.9 °F - 63.0 °F 93% 30.01 in 2.0 mi NNW 3.5 mph - N/A   Overcast
9:41 AM 66.2 °F - 62.6 °F 88% 30.03 in 9.0 mi Calm Calm - N/A   Mostly Cloudy
9:53 AM 66.9 °F - 62.1 °F 84% 30.02 in 10.0 mi NNW 3.5 mph - N/A   Scattered Clouds
10:53 AM 73.0 °F - 61.0 °F 66% 30.04 in 10.0 mi NE 4.6 mph - N/A   Clear
11:53 AM 75.2 °F - 60.8 °F 61% 30.05 in 10.0 mi Calm Calm - N/A   Partly Cloudy
12:33 PM 75.2 °F - 55.4 °F 50% 30.04 in 10.0 mi SSE 3.5 mph - N/A   Clear
12:53 PM 78.1 °F - 57.0 °F 48% 30.02 in 10.0 mi Calm Calm - N/A   Clear
2:53 PM 79.0 °F - 57.9 °F 48% 30.01 in 10.0 mi Variable 5.8 mph - N/A   Clear
3:53 PM 80.6 °F 81.5 °F 60.8 °F 51% 30.01 in 10.0 mi East 6.9 mph - N/A   Mostly Cloudy
4:53 PM 80.1 °F 80.6 °F 57.9 °F 47% 29.99 in 10.0 mi ESE 10.4 mph - N/A   Clear
5:53 PM 77.0 °F - 64.0 °F 64% 29.99 in 10.0 mi South 9.2 mph - N/A   Clear
6:53 PM 73.9 °F - 63.0 °F 68% 30.00 in 10.0 mi SSW 8.1 mph - N/A   Overcast
7:53 PM 71.1 °F - 63.0 °F 75% 30.01 in 10.0 mi Calm Calm - N/A   Clear
8:53 PM 66.9 °F - 62.1 °F 84% 30.03 in 10.0 mi Calm Calm - N/A   Clear
9:53 PM 64.9 °F - 61.0 °F 87% 30.04 in 10.0 mi Calm Calm - N/A   Clear
10:53 PM 64.0 °F - 61.0 °F 90% 30.03 in 8.0 mi Calm Calm - N/A   Clear
11:46 PM 62.6 °F - 60.8 °F 94% 30.04 in 1.2 mi Calm Calm - N/A   Clear
11:51 PM 60.8 °F - 60.8 °F 100% 30.04 in 4.0 mi Calm Calm - N/A   Clear
11:53 PM 61.0 °F - 60.1 °F 97% 30.03 in 6.0 mi Calm Calm - N/A   Clear